contact:dominique.lefevre@mio.osupytheas.fr, maurice.libes@osupytheas.fr
Project:EMSO Ligure-ouest http://www.emso-fr.org/EMSO-France
Sensor Aquadopp, line 13 Serial AQD14315 
DOI : "https://doi.org/10.17882/74513; https://doi.org/10.17882/83244" 
Title:EMSO Ligure Ouest : Data ligne ALBATROSS capteur AQUADOPP - deploiement 2021
Id,Date,Profondeur,Latitude,Longitude,X_East,Y_North,Z_Up,Amplitude_X,Amplitude_Y,Amplitude_Z,Batterie,SoundSpeed,Heading,Pitch,Roll,Pressure,Temperature,Speed,Direction
, , m, degrees North, degrees East, m.s-1, m.s-1,m.s-1, 1, 1, 1, Volt, m.s-1, degree, degree, degree, dbar, degree_C, m.s-1, degree
11,2021-09-29T22:00:00,2200.0,42.79,6.0312,0.029,-0.035,-0.001,55.0,57.0,60.0,12.8,1504.2,86.4,-0.4,0.0,2193.1,13.16,0.045,140.4
11,2021-09-29T22:30:00,2200.0,42.79,6.0312,0.026,-0.032,0.014,53.0,56.0,57.0,12.8,1504.2,84.1,-0.5,-0.1,2193.095,13.16,0.041,140.9
11,2021-09-29T23:00:00,2200.0,42.79,6.0312,0.026,-0.039,0.008,57.0,57.0,59.0,12.8,1504.2,84.6,-0.2,0.0,2193.125,13.16,0.046,146.3
11,2021-09-29T23:30:00,2200.0,42.79,6.0312,0.035,-0.036,0.0,50.0,56.0,58.0,12.8,1504.2,80.5,-0.7,0.1,2193.126,13.16,0.05,135.8
11,2021-09-30T00:00:00,2200.0,42.79,6.0312,0.033,-0.013,0.01,53.0,55.0,56.0,12.8,1504.2,79.7,-0.2,-0.2,2193.127,13.16,0.035,111.5
11,2021-09-30T00:30:00,2200.0,42.79,6.0312,0.038,-0.028,0.012,52.0,56.0,56.0,12.8,1504.2,80.6,-0.2,-0.2,2193.108,13.16,0.047,126.4
11,2021-09-30T01:00:00,2200.0,42.79,6.0312,0.033,-0.037,0.012,53.0,56.0,57.0,12.8,1504.2,82.7,-0.3,-0.2,2193.11,13.16,0.049,138.3
11,2021-09-30T01:30:00,2200.0,42.79,6.0312,0.028,-0.03,0.007,53.0,55.0,60.0,12.8,1504.2,83.7,0.0,-0.2,2193.101,13.16,0.041,137.0
11,2021-09-30T02:00:00,2200.0,42.79,6.0312,0.016,-0.025,-0.003,52.0,54.0,57.0,12.8,1504.2,85.0,-0.3,0.1,2193.088,13.16,0.029,147.4
11,2021-09-30T02:30:00,2200.0,42.79,6.0312,0.026,-0.023,0.003,54.0,56.0,55.0,12.8,1504.2,88.8,-0.2,0.1,2193.128,13.16,0.034,131.5
11,2021-09-30T03:00:00,2200.0,42.79,6.0312,0.026,-0.03,0.004,56.0,55.0,58.0,12.8,1504.2,87.5,-0.3,-0.2,2193.11,13.16,0.039,139.1
11,2021-09-30T03:30:00,2200.0,42.79,6.0312,0.026,-0.022,0.0,51.0,56.0,59.0,12.8,1504.2,91.4,-0.3,-0.1,2193.036,13.16,0.034,130.2
11,2021-09-30T04:00:00,2200.0,42.79,6.0312,0.03,-0.013,0.013,52.0,56.0,61.0,12.8,1504.2,78.6,0.0,-0.2,2193.073,13.16,0.032,113.4
11,2021-09-30T04:30:00,2200.0,42.79,6.0312,0.036,-0.021,-0.005,53.0,56.0,57.0,12.8,1504.2,89.4,-0.2,-0.2,2193.101,13.16,0.041,120.3
11,2021-09-30T05:00:00,2200.0,42.79,6.0312,0.028,-0.014,0.002,58.0,55.0,57.0,12.8,1504.2,87.2,-0.2,-0.1,2193.035,13.16,0.031,116.6
11,2021-09-30T05:30:00,2200.0,42.79,6.0312,0.038,-0.011,0.026,50.0,55.0,58.0,12.8,1504.2,89.8,-0.1,-0.2,2193.104,13.16,0.039,106.1
11,2021-09-30T06:00:00,2200.0,42.79,6.0312,0.022,-0.021,0.003,51.0,55.0,58.0,12.8,1504.2,86.3,-0.2,0.0,2193.051,13.16,0.03,133.7
11,2021-09-30T06:30:00,2200.0,42.79,6.0312,0.032,-0.021,0.018,51.0,60.0,56.0,12.8,1504.2,89.7,-0.4,0.0,2193.051,13.16,0.038,123.3
11,2021-09-30T07:00:00,2200.0,42.79,6.0312,0.025,-0.017,0.001,54.0,53.0,55.0,12.8,1504.2,87.6,-0.1,0.1,2193.055,13.16,0.03,124.2
11,2021-09-30T07:30:00,2200.0,42.79,6.0312,0.035,-0.023,-0.003,55.0,54.0,59.0,12.8,1504.2,90.3,-0.4,-0.2,2193.031,13.16,0.041,123.3
11,2021-09-30T08:00:00,2200.0,42.79,6.0312,0.038,-0.027,0.007,50.0,57.0,58.0,12.8,1504.2,90.6,-0.4,0.2,2193.037,13.16,0.046,125.4
11,2021-09-30T08:30:00,2200.0,42.79,6.0312,0.032,-0.023,0.004,53.0,55.0,56.0,12.8,1504.2,94.5,-0.4,0.0,2193.018,13.16,0.039,125.7
11,2021-09-30T09:00:00,2200.0,42.79,6.0312,0.035,-0.019,0.012,52.0,55.0,59.0,12.8,1504.2,87.7,-0.2,-0.2,2193.114,13.16,0.039,118.5
11,2021-09-30T09:30:00,2200.0,42.79,6.0312,0.026,-0.017,-0.005,53.0,54.0,58.0,12.8,1504.2,82.6,-0.4,0.1,2193.081,13.16,0.031,123.2
11,2021-09-30T10:00:00,2200.0,42.79,6.0312,0.024,-0.017,0.01,52.0,56.0,56.0,12.8,1504.2,85.2,-0.1,0.1,2193.074,13.16,0.029,125.3
11,2021-09-30T10:30:00,2200.0,42.79,6.0312,0.02,-0.007,0.006,53.0,54.0,57.0,12.8,1504.2,80.0,-0.1,0.0,2193.098,13.16,0.021,109.3
11,2021-09-30T11:00:00,2200.0,42.79,6.0312,0.029,-0.006,0.014,52.0,55.0,58.0,12.8,1504.2,79.8,-0.2,0.1,2193.054,13.16,0.029,101.7
11,2021-09-30T11:30:00,2200.0,42.79,6.0312,0.041,-0.014,-0.012,51.0,55.0,58.0,12.8,1504.2,70.4,-0.1,-0.1,2193.116,13.16,0.043,108.9
11,2021-09-30T12:00:00,2200.0,42.79,6.0312,0.038,-0.024,-0.01,53.0,55.0,57.0,12.8,1504.2,67.7,-0.5,-0.3,2193.135,13.16,0.044,122.3
11,2021-09-30T12:30:00,2200.0,42.79,6.0312,0.037,-0.01,0.016,54.0,56.0,58.0,12.8,1504.2,68.6,-0.2,-0.1,2193.156,13.16,0.038,105.1
11,2021-09-30T13:00:00,2200.0,42.79,6.0312,0.043,-0.024,0.006,54.0,56.0,56.0,12.8,1504.2,71.4,-0.4,-0.2,2193.162,13.16,0.049,119.2
11,2021-09-30T13:30:00,2200.0,42.79,6.0312,0.034,-0.031,-0.01,53.0,56.0,61.0,12.8,1504.2,67.2,0.2,-0.2,2193.144,13.16,0.046,132.4
11,2021-09-30T14:00:00,2200.0,42.79,6.0312,0.036,-0.029,0.001,53.0,56.0,57.0,12.8,1504.2,64.7,-0.1,-0.2,2193.134,13.16,0.046,128.9
11,2021-09-30T14:30:00,2200.0,42.79,6.0312,0.032,-0.04,0.004,53.0,58.0,59.0,12.8,1504.2,76.5,-0.3,0.0,2193.19,13.16,0.051,141.3
11,2021-09-30T15:00:00,2200.0,42.79,6.0312,0.036,-0.017,0.01,53.0,58.0,58.0,12.8,1504.2,63.0,-0.2,0.0,2193.188,13.16,0.039,115.3
11,2021-09-30T15:30:00,2200.0,42.79,6.0312,0.022,-0.017,0.002,53.0,58.0,59.0,12.8,1504.2,77.7,-0.6,-0.1,2193.173,13.16,0.027,127.7
11,2021-09-30T16:00:00,2200.0,42.79,6.0312,0.034,-0.033,0.021,55.0,58.0,57.0,12.8,1504.2,81.5,-0.6,0.1,2193.142,13.16,0.047,134.1
11,2021-09-30T16:30:00,2200.0,42.79,6.0312,0.035,-0.025,0.02,55.0,57.0,57.0,12.8,1504.2,74.8,0.0,-0.1,2193.182,13.16,0.043,125.5
11,2021-09-30T17:00:00,2200.0,42.79,6.0312,0.032,-0.03,-0.008,53.0,55.0,59.0,12.8,1504.2,77.5,-0.6,-0.1,2193.175,13.16,0.043,133.1
11,2021-09-30T17:30:00,2200.0,42.79,6.0312,0.031,-0.019,0.011,53.0,58.0,62.0,12.8,1504.2,78.4,-0.2,0.1,2193.132,13.16,0.036,121.5
11,2021-09-30T18:00:00,2200.0,42.79,6.0312,0.025,-0.015,0.0,53.0,56.0,56.0,12.8,1504.2,83.8,-0.2,-0.2,2193.178,13.16,0.029,121.0
11,2021-09-30T18:30:00,2200.0,42.79,6.0312,0.024,-0.023,0.016,56.0,56.0,58.0,12.8,1504.2,88.9,-0.2,0.0,2193.19,13.16,0.033,133.8
11,2021-09-30T19:00:00,2200.0,42.79,6.0312,0.02,-0.019,0.0,56.0,57.0,57.0,12.8,1504.2,89.8,-0.2,0.2,2193.136,13.16,0.027,133.5
11,2021-09-30T19:30:00,2200.0,42.79,6.0312,0.032,-0.024,0.004,54.0,56.0,58.0,12.8,1504.2,89.3,-0.4,0.2,2193.114,13.16,0.04,126.9
11,2021-09-30T20:00:00,2200.0,42.79,6.0312,0.02,-0.018,0.005,53.0,60.0,61.0,12.8,1504.2,92.0,-0.2,0.0,2193.125,13.16,0.026,132.0
11,2021-09-30T20:30:00,2200.0,42.79,6.0312,0.031,-0.021,0.011,55.0,58.0,60.0,12.8,1504.2,95.2,-0.4,0.0,2193.11,13.16,0.037,124.1
11,2021-09-30T21:00:00,2200.0,42.79,6.0312,0.027,-0.02,0.023,55.0,58.0,59.0,12.8,1504.2,92.0,-0.5,0.2,2193.101,13.16,0.033,126.5
